K4YOU Weather Reports


time (UTC)temp
C
wind
direction
speed
KPH
gust
KPH
rain 1hr
cm
rain 24hr
cm
rain mn
cm
humidity
%
barometer
mb
20260503234539 15 130 0.0 1.6 0.00 0.00 0.00 46 1016.1
20260503233038 16 130 0.0 1.6 0.00 0.00 0.00 42 1016.0
20260503231538 17 140 0.0 4.8 0.00 0.00 0.00 38 1015.9
20260503230037 18 124 0.0 3.2 0.00 0.00 0.00 35 1015.9
20260503224537 18 145 0.0 1.6 0.00 0.00 0.00 35 1015.9
20260503223039 18 151 0.0 4.8 0.00 0.00 0.00 33 1015.9
20260503221541 19 113 0.0 6.4 0.00 0.00 0.00 35 1015.8
20260503220044 18 114 0.0 6.4 0.00 0.00 0.00 34 1015.7
20260503214534 18 107 1.6 4.8 0.00 0.00 0.00 34 1015.8
20260503213039 18 150 1.6 8.0 0.00 0.00 0.00 34 1015.7
20260503211540 18 140 1.6 6.4 0.00 0.00 0.00 33 1015.7
20260503210032 19 115 1.6 9.7 0.00 0.00 0.00 34 1015.8
20260503204531 20 127 0.0 6.4 0.00 0.00 0.00 34 1015.6
20260503203034 20 131 0.0 4.8 0.00 0.00 0.00 34 1015.8
20260503201531 19 198 3.2 11.3 0.00 0.00 0.00 35 1015.8
20260503200034 18 162 0.0 8.0 0.00 0.00 0.00 34 1015.9
20260503194531 18 125 1.6 9.7 0.00 0.00 0.00 36 1016.0
20260503193028 19 149 3.2 9.7 0.00 0.00 0.00 34 1016.1
20260503191527 19 158 1.6 14.5 0.00 0.00 0.00 35 1016.4
20260503190027 19 122 1.6 9.7 0.00 0.00 0.00 37 1016.7
20260503184528 19 131 3.2 8.0 0.00 0.00 0.00 37 1016.7
20260503183034 19 188 0.0 6.4 0.00 0.00 0.00 40 1016.8
20260503181536 18 122 0.0 9.7 0.00 0.00 0.00 39 1016.9
20260503180024 18 108 4.8 12.9 0.00 0.00 0.00 37 1016.8
20260503174523 18 140 3.2 8.0 0.00 0.08 0.00 38 1017.0
20260503173040 17 70 3.2 12.9 0.00 0.08 0.00 38 1017.2
20260503171520 17 146 1.6 11.3 0.00 0.08 0.00 43 1017.1
20260503081514 8 108 0.0 1.6 0.00 0.28 0.00 85 1013.4
20260503071615 8 108 0.0 1.6 0.00 0.28 0.00 82 1012.7
20260503070109 8 92 0.0 1.6 0.00 0.28 0.00 83 1012.6
20260503060114 8 150 0.0 0.0 0.00 0.28 0.00 83 1012.3
20260503054552 8 150 0.0 0.0 0.00 0.28 0.00 82 1012.1
20260503053049 9 150 0.0 0.0 0.00 0.28 0.00 79 1012.2
20260503051548 10 150 0.0 0.0 0.00 0.28 0.00 78 1012.4
20260503050043 10 150 0.0 0.0 0.00 0.28 0.00 77 1012.3
20260503044607 11 150 0.0 0.0 0.00 0.28 0.00 74 1012.3
20260503043038 11 150 0.0 0.0 0.00 0.28 0.00 74 1012.3
20260503041535 11 150 0.0 0.0 0.00 0.28 0.00 73 1012.4
20260503040031 11 150 0.0 0.0 0.00 0.28 0.00 73 1012.3
20260503034532 11 150 0.0 0.0 0.00 0.28 0.28 73 1012.3
20260503033029 11 150 0.0 0.0 0.00 0.28 0.28 73 1012.2
20260503031528 11 150 0.0 0.0 0.00 0.28 0.28 72 1012.1
20260503030032 11 150 0.0 0.0 0.00 0.28 0.28 70 1012.1
20260503024527 12 150 0.0 0.0 0.00 0.28 0.28 69 1012.3
20260503023027 11 150 0.0 0.0 0.00 0.28 0.28 69 1012.4
20260503021526 11 150 0.0 0.0 0.00 0.28 0.28 73 1012.3
20260503020034 12 150 0.0 0.0 0.00 0.28 0.28 67 1012.4
20260503014525 12 150 0.0 0.0 0.00 0.28 0.28 68 1012.2
20260503013025 12 150 0.0 0.0 0.00 0.28 0.28 67 1011.9
20260503011524 12 150 0.0 0.0 0.00 0.28 0.28 67 1011.8
20260503010023 12 150 0.0 0.0 0.00 0.28 0.28 66 1011.9
20260503004523 12 150 0.0 0.0 0.00 0.28 0.28 65 1011.8
20260503003030 12 162 0.0 1.6 0.00 0.28 0.28 63 1011.5
20260503001522 12 143 0.0 0.0 0.00 0.28 0.28 60 1011.4
20260503000028 12 134 0.0 1.6 0.00 0.28 0.28 56 1011.3